TimePDT,TemperatureF,Dew PointF,Humidity,Sea Level PressureIn,VisibilityMPH,Wind Direction,Wind SpeedMPH,Gust SpeedMPH,PrecipitationIn,Events,Conditions,WindDirDegrees,DateUTC
12:53 AM,45.0,36.0,71,30.04,10.0,Calm,Calm,-,N/A,,Clear,0,2011-10-16 07:53:00
2:53 AM,41.0,35.1,79,30.05,10.0,Calm,Calm,-,N/A,,Clear,0,2011-10-16 09:53:00
3:53 AM,39.0,34.0,82,30.05,8.0,South,3.5,-,N/A,,Clear,190,2011-10-16 10:53:00
4:53 AM,39.2,33.8,81,30.19,6.0,SSW,4.6,-,N/A,,Haze,200,2011-10-16 11:53:00
5:53 AM,48.9,39.0,69,30.06,10.0,SSW,4.6,-,0.00,,Partly Cloudy,210,2011-10-16 12:53:00
6:53 AM,53.1,42.1,66,30.09,10.0,South,16.1,-,0.00,Rain,Light Rain,180,2011-10-16 13:53:00
7:53 AM,52.0,42.1,69,30.08,10.0,SW,9.2,-,0.01,,Overcast,220,2011-10-16 14:53:00
8:53 AM,53.1,44.1,71,30.10,10.0,South,4.6,-,N/A,,Partly Cloudy,170,2011-10-16 15:53:00
9:53 AM,62.1,42.1,48,30.08,10.0,South,9.2,16.1,N/A,,Clear,190,2011-10-16 16:53:00
10:53 AM,64.0,41.0,43,30.10,10.0,South,10.4,-,N/A,,Clear,180,2011-10-16 17:53:00
11:53 AM,66.9,39.9,37,30.12,10.0,South,12.7,17.3,N/A,,Clear,190,2011-10-16 18:53:00
12:53 PM,66.9,37.9,34,30.11,10.0,SSW,11.5,21.9,N/A,,Clear,200,2011-10-16 19:53:00
1:53 PM,66.9,39.0,36,30.09,10.0,SW,8.1,-,N/A,,Scattered Clouds,220,2011-10-16 20:53:00
2:53 PM,68.0,37.9,33,30.11,10.0,Variable,6.9,-,N/A,,Partly Cloudy,0,2011-10-16 21:53:00
3:53 PM,66.9,37.9,34,30.12,10.0,South,8.1,-,N/A,,Partly Cloudy,190,2011-10-16 22:53:00
4:53 PM,64.9,39.0,39,30.15,10.0,SW,4.6,-,N/A,,Mostly Cloudy,220,2011-10-16 23:53:00
5:53 PM,60.1,41.0,49,30.13,10.0,SSW,4.6,-,N/A,,Clear,210,2011-10-17 00:53:00
6:53 PM,55.0,42.1,62,30.15,10.0,SSW,4.6,-,N/A,,Clear,200,2011-10-17 01:53:00
7:53 PM,53.1,43.0,69,30.16,10.0,SSE,5.8,-,N/A,,Clear,160,2011-10-17 02:53:00
8:53 PM,50.0,42.1,74,30.19,10.0,SSW,3.5,-,N/A,,Clear,210,2011-10-17 03:53:00
9:53 PM,48.0,39.0,71,30.19,10.0,SSW,3.5,-,N/A,,Clear,210,2011-10-17 04:53:00
10:53 PM,46.9,37.9,71,30.19,10.0,South,6.9,-,N/A,,Clear,190,2011-10-17 05:53:00
11:53 PM,44.1,37.0,76,30.21,10.0,Calm,Calm,-,N/A,,Clear,0,2011-10-17 06:53:00